Regional Weather Roundup
Issued by NWS

Home | Current Version | Previous Version | Graphics & Text | Print | Product List | Glossary On
Versions: 1 2 3 4 5 6 7 8 9 10 11 12 13 14 15 16 17 18 19 20 21 22 23 24 25 26 27 28 29 30 31 32 33 34 35 36 37 38 39 40 41 42 43 44 45 46 47 48 49 50
000
ASUS43 KTOP 250559
RWRKS

WEATHER ROUNDUP FOR KANSAS
NATIONAL WEATHER SERVICE GOODLAND KS
100 AM CDT MON MAY 25 2015

NOTE:  "FAIR" INDICATES FEW OR NO CLOUDS BELOW 12,000 FEET WITH NO
SIGNIFICANT WEATHER AND/OR OBSTRUCTIONS TO VISIBILITY.

KSZ001>006-013>018-027>032-041>047-250700-
NORTHWEST KANSAS

CITY           SKY/WX    TMP DP  RH WIND       PRES   REMARKS
GOODLAND       CLOUDY    52  50  93 S15       29.83R
6HR MIN TEMP:  47; 6HR MAX TEMP:  66; 6HR PCP:  0.76;

HAYS           CLOUDY    55  48  76 S3        29.85F
HILL CITY      LGT RAIN  56  53  90 W7        29.82F
6HR MIN TEMP:  55; 6HR MAX TEMP:  68; 6HR PCP:  0.08;

RUSSELL        CLOUDY    59  58  96 S9        29.82S
6HR MIN TEMP:  59; 6HR MAX TEMP:  67;

$$

KSZ061>065-074>080-084>089-250700-
SOUTHWEST KANSAS

CITY           SKY/WX    TMP DP  RH WIND       PRES   REMARKS
DODGE CITY     TSTM      53  51  93 NW21G38   29.84R VSB 3/4
6HR MIN TEMP:  53; 6HR MAX TEMP:  63; 6HR PCP:  0.80;

ELKHART          N/A     55  48  77 W6          N/A
GARDEN CITY    CLOUDY    55  52  89 SE12      29.76F THUNDER
6HR MIN TEMP:  54; 6HR MAX TEMP:  67; 6HR PCP:  0.18;

GREAT BEND     CLOUDY    57  54  88 SE8       29.82S
LIBERAL        CLOUDY    64  59  82 SW10G17   29.79R
$$

KSZ066>073-081>083-090>101-250700-
SOUTHEAST KANSAS

CITY           SKY/WX    TMP DP  RH WIND       PRES   REMARKS
CHANUTE        CLOUDY    61  61 100 S17G26    29.86R
6HR MIN TEMP:  61; 6HR MAX TEMP:  66; 6HR PCP:  0.41;

COFFEYVILLE    MOCLDY    62  61  96 S8        29.88S
6HR MIN TEMP:  61; 6HR MAX TEMP:  67; 6HR PCP:  0.13;

HUTCHINSON     MOCLDY    57  54  89 S5        29.83F
6HR MIN TEMP:  57; 6HR MAX TEMP:  65; 6HR PCP: TRACE;

NEWTON         CLOUDY    57  54  88 S9        29.85F
PARSONS        CLOUDY    62  62 100 S9        29.90S
6HR MIN TEMP:  61; 6HR MAX TEMP:  67; 6HR PCP:  0.09;

WICHITA INTL   MOCLDY    60  58  92 S10       29.84F
6HR MIN TEMP:  60; 6HR MAX TEMP:  64; 6HR PCP:  0.11;

WICHITA JABRA  MOCLDY    60  58  92 S9        29.84F
6HR MIN TEMP:  60; 6HR MAX TEMP:  62; 6HR PCP:  0.07;

WINFIELD       PTCLDY    60  60 100 E6        29.86F
6HR MIN TEMP:  60; 6HR MAX TEMP:  65; 6HR PCP:  0.02;

$$

KSZ007>012-019>026-033>040-048>060-102>105-250700-
NORTHEAST KANSAS

CITY           SKY/WX    TMP DP  RH WIND       PRES   REMARKS
EMPORIA        CLOUDY    61  58  90 SW6       29.85R
6HR MIN TEMP:  61; 6HR MAX TEMP:  64; 6HR PCP:  0.02;

LAWRENCE       LGT RAIN  63  60  90 SW5       29.84R
6HR MIN TEMP:  63; 6HR MAX TEMP:  67; 6HR PCP: TRACE;

MANHATTAN      CLOUDY    60  59  96 SW5       29.82R
6HR MIN TEMP:  60; 6HR MAX TEMP:  67;

OLATHE IND     CLOUDY    62  61  96 S5        29.84R
6HR MIN TEMP:  62; 6HR MAX TEMP:  66;

OLATHE EXE     CLOUDY    62  61  96 SW3       29.83S
6HR MIN TEMP:  62; 6HR MAX TEMP:  67; 6HR PCP: TRACE;

SALINA         CLOUDY    59  57  93 S7        29.80F
6HR MIN TEMP:  58; 6HR MAX TEMP:  69;

TOPEKA BILLARD CLOUDY    64  61  90 CALM      29.82S
6HR MIN TEMP:  63; 6HR MAX TEMP:  67;

TOPEKA FORBES  CLOUDY    63  60  90 S8        29.82S
6HR MIN TEMP:  63; 6HR MAX TEMP:  67;

$$


USA.gov is the U.S. government's official web portal to all federal, state and local government web resources and services.